Regional Weather Roundup
Issued by NWS State College, PA

Home | Current Version | Previous Version | Graphics & Text | Print | Product List | Glossary Off
Versions: 1 2 3 4 5 6 7 8 9 10 11 12 13 14 15 16 17 18 19 20 21 22 23 24 25 26 27 28 29 30 31 32 33 34 35 36 37 38 39 40 41 42 43 44 45 46 47 48 49 50

000
ASUS41 KCTP 040003
RWRCTP

REGIONAL WEATHER ROUNDUP
NATIONAL WEATHER SERVICE STATE COLLEGE PA
800 PM EDT THU SEP 03 2015

Note: "fair" indicates few or no clouds below 12,000 feet with no
significant weather and/or obstructions to visibility.

* = STATION THAT DOES NOT REPORT PRECIPITATION /E.G. RAIN...SNOW...ETC/
    THUNDER OR FOG.

PAZ002>004-007>009-013>016-020>023-029>032-040100-
WESTERN PENNSYLVANIA

CITY           SKY/WX    TMP DP  RH WIND       PRES   REMARKS
ERIE           PTCLDY    75  68  78 VRB6      29.96R
MEADVILLE      PTCLDY    72  67  84 N5        30.00R HAZE
FRANKLIN*      PTCLDY    73  64  73 NE5       30.02R
NEW CASTLE     FAIR      76  68  76 CALM      29.98R
BEAVER COUNTY  CLEAR     77  63  61 NW6       29.98S
BUTLER*        CLOUDY    75  66  73 CALM      29.98S
PITTSBURGH INT CLOUDY    75  64  68 W9        29.97R
PITTSBURGH     CLOUDY    77  61  57 W7        29.97R
INDIANA*       CLEAR     79  70  73 CALM      30.00R
LATROBE        CLEAR     77  66  69 SW9       29.96S
WASHINGTON CO* CLOUDY    70  64  83 CALM      29.98S
$$

PAZ004>006-010>012-017>019-024>028-033>037-041-042-045-046-049>053-040100-
CENTRAL PENNSYLVANIA

CITY           SKY/WX    TMP DP  RH WIND       PRES   REMARKS
BRADFORD       MOCLDY    74  65  73 SW6       30.01S
DUBOIS         PTCLDY    74  61  63 N7        29.99R
CLEARFIELD     PTCLDY    74  65  73 N6        29.98R
JOHNSTOWN      MOCLDY    76  64  66 NW7       30.01S
ALTOONA        MOCLDY    78  65  63 N3        29.97R
STATE COLLEGE  CLEAR     75  66  73 CALM      29.96R
WILLIAMSPORT   MOCLDY    75  71  87 CALM      29.90R
SELINSGROVE    MOCLDY    76  73  91 CALM      29.90R FOG
FT INDIANTOWN  MOCLDY    81  67  62 VRB2      29.89R
CAPITAL CITY   PTCLDY    83  67  58 CALM      29.88R
HARRISBURG     MOCLDY    83  69  62 CALM      29.87R
YORK           PTCLDY    74  69  85 CALM      29.89R
$$

PAZ038>040-043-044-047-048-054-055-060>062-067>071-040100-
EASTERN PENNSYLVANIA

CITY           SKY/WX    TMP DP  RH WIND       PRES   REMARKS
SCRANTON       MOCLDY    76  69  79 E3        29.92R
MOUNT POCONO   MOCLDY    73  68  84 NW5       29.96R
ALLENTOWN      CLOUDY    76  65  68 CALM      29.88R
QUAKERTOWN*    MOCLDY    82  66  57 N6        29.89R
READING        CLOUDY    82  66  58 NW8       29.87R
LANCASTER      PTCLDY    83  67  58 NW5       29.88R
COATESVILLE    CLEAR     81  66  61 NW5       29.89R
POTTSTOWN      HVY RAIN  79  69  71 VRB5      29.89R
BLUE BELL      PTCLDY    77  72  83 CALM      29.85R
DOYLESTOWN     PTCLDY    79  67  66 CALM      29.86R
WILLOW GROVE   NOT AVBL
NORTH PHILA    CLEAR     87  63  44 N5        29.85S
PHILADELPHIA   PTCLDY    90  63  40 N5        29.84R
$$



USA.gov is the U.S. government's official web portal to all federal, state and local government web resources and services.